When you browse on this site, cookies collect data to enhance your experience and personalize the content and advertising you see.
Visit our Privacy Policy to learn more. By continuing to use the site, you agree to this use of cookies and data.
  • In Belgium
  • List of Countries
  • For 7 days
  • Water Temperature
  • Satellite Maps
  • Weather Map
  • Weather Widgets
  • user-avatar
    Login

    Hourly Weather Nivelles

    Today, 20 January, Sunday

    Time Temperature Precipitation Wind Pressure Humidity
    00:00 -4°C° 0 mm 3 mps 749 mmHg 69%
    01:00 -3°C° 0 mm 2 mps 749 mmHg 69%
    02:00 -3°C° 0 mm 2 mps 749 mmHg 68%
    03:00 -3°C° 0 mm 2 mps 749 mmHg 68%
    04:00 -3°C° 0 mm 2 mps 749 mmHg 67%
    05:00 -3°C° 0 mm 2 mps 749 mmHg 66%
    06:00 -3°C° 0 mm 2 mps 749 mmHg 66%
    07:00 -3°C° 0 mm 2 mps 750 mmHg 63%
    08:00 -2°C° 0 mm 2 mps 750 mmHg 61%
    09:00 -2°C° 0 mm 2 mps 750 mmHg 59%
    10:00 -1°C° 0 mm 2 mps 751 mmHg 55%
    11:00 +1°C° 0 mm 2 mps 751 mmHg 51%
    12:00 +2°C° 0 mm 2 mps 751 mmHg 47%
    13:00 +2°C° 0 mm 2 mps 751 mmHg 49%
    14:00 +1°C° 0 mm 2 mps 752 mmHg 51%
    15:00 +1°C° 0 mm 2 mps 752 mmHg 53%
    16:00 -1°C° 0 mm 2 mps 752 mmHg 57%
    17:00 -2°C° 0 mm 3 mps 753 mmHg 62%
    18:00 -4°C° 0 mm 3 mps 753 mmHg 66%
    19:00 -3°C° 0 mm 2 mps 754 mmHg 66%
    20:00 -3°C° 0 mm 2 mps 754 mmHg 67%
    21:00 -3°C° 0 mm 2 mps 755 mmHg 68%
    22:00 -3°C° 0 mm 2 mps 755 mmHg 67%
    23:00 -3°C° 0 mm 2 mps 756 mmHg 66%

    Tomorrow, 21 January, Monday

    Time Temperature Precipitation Wind Pressure Humidity
    00:00 -3°C° 0 mm 2 mps 756 mmHg 66%
    01:00 -1°C° 0 mm 1 mps 756 mmHg 65%
    02:00 -1°C° 0 mm 1 mps 756 mmHg 64%
    03:00 -1°C° 0 mm 1 mps 756 mmHg 63%
    04:00 -1°C° 0 mm 1 mps 756 mmHg 63%
    05:00 -2°C° 0 mm 1 mps 757 mmHg 62%
    06:00 -2°C° 0 mm 1 mps 757 mmHg 61%
    07:00 -2°C° 0 mm 0 mps 757 mmHg 59%
    08:00 -2°C° 0 mm 0 mps 757 mmHg 56%
    09:00 -1°C° 0 mm 0 mps 757 mmHg 53%
    10:00 0°C° 0 mm 0 mps 757 mmHg 49%
    11:00 +1°C° 0 mm 0 mps 757 mmHg 45%
    12:00 +2°C° 0 mm 0 mps 757 mmHg 41%
    13:00 +2°C° 0 mm 0 mps 756 mmHg 43%
    14:00 +3°C° 0 mm 1 mps 756 mmHg 46%
    15:00 +2°C° 0 mm 1 mps 755 mmHg 48%
    16:00 +2°C° 0 mm 1 mps 755 mmHg 50%
    17:00 +1°C° 0 mm 1 mps 755 mmHg 53%
    18:00 -2°C° 0 mm 2 mps 755 mmHg 55%
    19:00 -3°C° 0 mm 2 mps 754 mmHg 56%
    20:00 -4°C° 0 mm 3 mps 754 mmHg 56%
    21:00 -4°C° 0 mm 3 mps 753 mmHg 57%
    22:00 -4°C° 0 mm 4 mps 752 mmHg 57%
    23:00 -5°C° 0 mm 5 mps 752 mmHg 56%

    Day after tomorrow, 22 January, Tuesday

    Time Temperature Precipitation Wind Pressure Humidity
    00:00 -4°C° 0 mm 5 mps 751 mmHg 55%
    01:00 -4°C° 0 mm 6 mps 750 mmHg 55%
    02:00 -4°C° 0 mm 6 mps 748 mmHg 54%
    03:00 -4°C° 0 mm 7 mps 747 mmHg 54%
    04:00 -3°C° 0 mm 7 mps 746 mmHg 55%
    05:00 -4°C° 0 mm 8 mps 745 mmHg 56%
    06:00 -4°C° 0 mm 8 mps 743 mmHg 57%
    07:00 -4°C° 0.5 mm 8 mps 743 mmHg 67%
    08:00 -5°C° 0.5 mm 8 mps 742 mmHg 77%
    09:00 -5°C° 0.5 mm 9 mps 741 mmHg 87%
    10:00 -4°C° 0.7 mm 8 mps 741 mmHg 88%
    11:00 -3°C° 0.7 mm 7 mps 740 mmHg 89%
    12:00 -3°C° 0.7 mm 6 mps 739 mmHg 90%
    13:00 -2°C° 0.5 mm 5 mps 739 mmHg 92%
    14:00 -1°C° 0.5 mm 3 mps 738 mmHg 93%
    15:00 -1°C° 0.5 mm 2 mps 738 mmHg 95%
    16:00 -1°C° 0 mm 2 mps 738 mmHg 94%
    17:00 -1°C° 0 mm 2 mps 738 mmHg 93%
    18:00 -2°C° 0 mm 2 mps 738 mmHg 93%
    19:00 -2°C° 0 mm 2 mps 738 mmHg 93%
    20:00 -2°C° 0 mm 2 mps 738 mmHg 92%
    21:00 -2°C° 0 mm 2 mps 738 mmHg 92%
    22:00 -2°C° 0 mm 2 mps 738 mmHg 92%
    23:00 -3°C° 0 mm 2 mps 738 mmHg 92%

    23 January, Wednesday

    Time Temperature Precipitation Wind Pressure Humidity
    00:00 -3°C° 0 mm 2 mps 738 mmHg 91%
    01:00 -3°C° 0 mm 2 mps 738 mmHg 91%
    02:00 -4°C° 0 mm 2 mps 738 mmHg 91%
    03:00 -4°C° 0 mm 2 mps 738 mmHg 91%
    04:00 -4°C° 0 mm 2 mps 738 mmHg 91%
    05:00 -2°C° 0 mm 1 mps 739 mmHg 91%
    06:00 -3°C° 0 mm 1 mps 739 mmHg 91%
    07:00 -2°C° 0 mm 1 mps 739 mmHg 91%
    08:00 -2°C° 0 mm 1 mps 740 mmHg 91%
    09:00 -1°C° 0 mm 1 mps 740 mmHg 91%
    10:00 0°C° 0 mm 1 mps 740 mmHg 90%
    11:00 +1°C° 0 mm 1 mps 741 mmHg 88%
    12:00 +2°C° 0 mm 1 mps 741 mmHg 87%
    13:00 +2°C° 0 mm 1 mps 741 mmHg 88%
    14:00 +2°C° 0 mm 1 mps 741 mmHg 89%
    15:00 +2°C° 0 mm 1 mps 741 mmHg 90%
    16:00 +1°C° 0 mm 1 mps 742 mmHg 90%
    17:00 0°C° 0 mm 1 mps 742 mmHg 90%
    18:00 -1°C° 0 mm 1 mps 743 mmHg 89%
    19:00 -1°C° 0 mm 1 mps 744 mmHg 90%
    20:00 -1°C° 0 mm 1 mps 744 mmHg 91%
    21:00 -1°C° 0 mm 1 mps 745 mmHg 91%
    22:00 -1°C° 0 mm 1 mps 745 mmHg 92%
    23:00 -1°C° 0 mm 1 mps 745 mmHg 92%

    24 January, Thursday

    Time Temperature Precipitation Wind Pressure Humidity
    00:00 -1°C° 0 mm 1 mps 746 mmHg 93%
    01:00 -1°C° 0 mm 1 mps 746 mmHg 93%
    02:00 -1°C° 0 mm 1 mps 746 mmHg 93%
    03:00 -1°C° 0 mm 1 mps 746 mmHg 93%
    04:00 -1°C° 0 mm 1 mps 747 mmHg 93%
    05:00 -1°C° 0 mm 1 mps 747 mmHg 92%
    06:00 -1°C° 0 mm 1 mps 747 mmHg 92%
    07:00 0°C° 0 mm 1 mps 748 mmHg 91%
    08:00 0°C° 0 mm 1 mps 749 mmHg 89%
    09:00 0°C° 0 mm 1 mps 749 mmHg 88%
    10:00 +1°C° 0 mm 1 mps 749 mmHg 87%
    11:00 +2°C° 0 mm 1 mps 750 mmHg 86%
    12:00 +3°C° 0 mm 1 mps 750 mmHg 85%
    13:00 +2°C° 0 mm 1 mps 750 mmHg 86%
    14:00 +2°C° 0 mm 1 mps 750 mmHg 88%
    15:00 +2°C° 0 mm 1 mps 750 mmHg 90%
    16:00 +1°C° 0 mm 1 mps 751 mmHg 90%
    17:00 0°C° 0 mm 1 mps 752 mmHg 91%
    18:00 -1°C° 0 mm 1 mps 752 mmHg 91%
    19:00 -1°C° 0 mm 1 mps 753 mmHg 91%
    20:00 -1°C° 0 mm 1 mps 753 mmHg 91%
    21:00 -1°C° 0 mm 1 mps 754 mmHg 91%
    22:00 -1°C° 0 mm 1 mps 754 mmHg 91%
    23:00 -1°C° 0 mm 1 mps 754 mmHg 91%

    25 January, Friday

    Time Temperature Precipitation Wind Pressure Humidity
    00:00 -2°C° 0 mm 1 mps 755 mmHg 91%
    01:00 -3°C° 0 mm 0 mps 755 mmHg 91%
    02:00 -3°C° 0 mm 0 mps 755 mmHg 91%
    03:00 -3°C° 0 mm 0 mps 755 mmHg 91%
    04:00 -3°C° 0 mm 0 mps 756 mmHg 90%
    05:00 -3°C° 0 mm 0 mps 756 mmHg 90%
    06:00 -3°C° 0 mm 0 mps 756 mmHg 90%
    07:00 -3°C° 0 mm 0 mps 757 mmHg 89%
    08:00 -2°C° 0 mm 0 mps 757 mmHg 88%
    09:00 -2°C° 0 mm 0 mps 757 mmHg 87%
    10:00 0°C° 0 mm 1 mps 757 mmHg 85%
    11:00 +1°C° 0 mm 1 mps 757 mmHg 83%
    12:00 +2°C° 0 mm 1 mps 757 mmHg 81%
    13:00 +2°C° 0 mm 1 mps 757 mmHg 84%
    14:00 +2°C° 0 mm 1 mps 757 mmHg 86%
    15:00 +2°C° 0 mm 1 mps 757 mmHg 88%
    16:00 -1°C° 0 mm 2 mps 757 mmHg 89%
    17:00 -2°C° 0 mm 2 mps 757 mmHg 90%
    18:00 -2°C° 0 mm 2 mps 757 mmHg 91%
    19:00 -2°C° 0 mm 3 mps 757 mmHg 90%
    20:00 -2°C° 0 mm 3 mps 757 mmHg 88%
    21:00 -2°C° 0 mm 3 mps 757 mmHg 87%
    22:00 -3°C° 0 mm 4 mps 757 mmHg 86%
    23:00 -3°C° 0 mm 4 mps 757 mmHg 86%
    Show more